Location: C.E.K. Mees Observatory
(42.7003°N, 77.4088°W)
Time: 09:53:45
(UTC-05:00)

N. Korean satellite - Visible Passes

Search period start: 27 November 2020 00:00
Search period end: 07 December 2020 00:00
Orbit: 452 x 504 km, 97.2° (Epoch: 26 November)

Date Brightness Start Highest point End Pass type
(mag) Time Alt. Az. Time Alt. Az. Time Alt. Az.
27 Nov 6.7 05:37:54 10° NNE 05:41:30 75° ESE 05:45:07 10° S visible
27 Nov 9.7 17:48:15 10° SW 17:50:24 16° W 17:52:35 10° NW visible
28 Nov 8.4 05:11:52 10° NNE 05:15:10 33° E 05:18:29 10° SSE visible
28 Nov 8.2 06:45:58 10° NNW 06:48:14 16° WNW 06:50:31 10° WSW visible
28 Nov 8.5 17:20:51 10° SSW 17:23:58 33° W 17:27:07 10° NNW visible
29 Nov 9.6 04:46:23 10° NE 04:48:44 16° E 04:51:06 10° SE visible
29 Nov 7.3 06:18:54 10° N 06:22:08 31° WNW 06:25:23 10° SW visible
30 Nov 6.5 05:52:20 10° N 05:55:56 69° WNW 05:59:33 10° SSW visible
30 Nov 10.2 18:04:18 10° W 18:04:56 10° W 18:05:36 10° W visible
01 Dec 7.4 05:26:04 10° NNE 05:29:37 52° E 05:33:11 10° S visible
01 Dec 9.3 17:35:42 10° SSW 17:38:24 22° W 17:41:10 10° NW visible
02 Dec 9.0 05:00:12 10° NE 05:03:13 24° E 05:06:15 10° SSE visible
02 Dec 7.8 06:33:36 10° NNW 06:36:26 22° WNW 06:39:17 10° WSW visible
02 Dec 7.6 17:08:40 10° S 17:11:59 48° W 17:15:21 10° NNW visible
03 Dec 10.0 04:35:14 10° ENE 04:36:42 12° E 04:38:11 10° ESE visible
03 Dec 6.9 06:06:46 10° N 06:10:15 44° WNW 06:13:45 10° SW visible
04 Dec 6.6 05:40:19 10° NNE 05:43:58 83° ESE 05:47:39 10° S visible
04 Dec 9.7 17:50:48 10° SW 17:52:49 15° W 17:54:52 10° NW visible
05 Dec 8.2 05:14:11 10° NNE 05:17:36 36° E 05:21:01 10° SSE visible
05 Dec 8.2 06:48:26 10° NNW 06:50:37 15° WNW 06:52:49 10° WSW visible
05 Dec 8.6 17:23:13 10° SSW 17:26:18 31° W 17:29:27 10° NNW visible
06 Dec 9.5 04:48:33 10° NE 04:51:07 18° E 04:53:41 10° SE visible
06 Dec 7.4 06:21:16 10° N 06:24:28 29° WNW 06:27:42 10° SW visible
